Location: Barrio de Buenos Aires
(28.4500°N, 16.2667°W)
Time: 14:54:39
(UTC+00:00)

OAO 3 Rocket - Pass Details

Date: 24 January 2020
Orbit: 629 x 683 km, 35.0° (Epoch: 22 February)

Event Time Altitude Azimuth Distance (km) Brightness Sun altitude
Rises 20:07:52 0° 247° (WSW) 2,897 8.0 -19.8°
Reaches altitude 10° 20:10:12 10° 247° (WSW) 1,991 6.8 -20.3°
Maximum altitude 20:14:50 90° 326° (NW) 630 3.0 -21.3°
Enters shadow 20:15:41 59° 67° (ENE) 721 3.0 -21.5°
